Hourly Data Report for April 30, 2021

CLYDE RIVER A
NUNAVUT
Current Station Operator: NAVCAN

70°29'09.000" N
68°31'01.000" W
26.50 m
2400804
71090
YCY

Download Data

Hourly Data (April 2021)
Hourly Data Report for April 30, 2021
TIME
LST
Temp Definition
°C
Dew Point Definition
°C
Rel Hum Definition
%
Precip. Amount Definition
mm

Wind Dir Definition
10's deg

Wind Spd Definition
km/h
Visibility Definition
km
Stn Press Definition
kPa
Hmdx Definition


Wind Chill Definition


Weather Definition


00:00 -5.9 -6.0 99 0.0   0 0.2 102.19     Freezing Fog
01:00 -8.3 -8.7 97 0.0 31 4 0.0 102.22   -10 Freezing Fog
02:00 -9.8 -10.3 96 0.0 29 5 16.1 102.22   -13 LegendNANA
03:00 -9.5 -9.9 97 0.0 36 9 16.1 102.27   -14 LegendNANA
04:00 -9.6 -10.0 97 0.0 3 4 0.6 102.29   -12 Freezing Fog
05:00 -9.7 -10.2 96 0.0 26 8 0.8 102.30   -14 Freezing Fog
06:00 -5.9 -6.0 99 0.0 3 8 16.1 102.30   -10 LegendNANA
07:00 -6.0 -6.3 98 0.0 11 8 16.1 102.31   -10 LegendNANA
08:00 -7.0 -7.3 98 0.0 LegendMM 4 2.0 102.31   -9 Fog
09:00 -6.0 -6.1 99 0.0 34 5 14.5 102.29   -8 LegendNANA
10:00 -5.8 -5.9 99 0.0 4 5 16.1 102.30   -8 LegendNANA
11:00 -5.4 -5.5 99 0.0 LegendMM 4 16.1 102.30   -7 LegendNANA
12:00 -4.9 -4.9 100 0.0 28 5 16.1 102.27   -7 LegendNANA
13:00 -4.5 -4.5 100 0.0 LegendMM 4 16.1 102.29   -6 LegendNANA
14:00 -4.6 -4.6 100 0.0 3 5 8.1 102.30   -7 Fog
15:00 -4.7 -4.7 100 0.0 34 8 6.4 102.30   -8 Fog
16:00 -4.5 -4.5 100 0.0 1 9 16.1 102.28   -8 LegendNANA
17:00 -5.0 -5.0 100 0.0 2 8 9.7 102.32   -9 Fog
18:00 -5.5 -5.6 99 0.0 3 5 0.4 102.32   -8 Freezing Fog
19:00 -6.3 -6.4 99 0.0 33 4 0.2 102.32   -8 Freezing Fog
20:00 -8.0 -8.4 97 0.0 33 11 16.1 102.30   -13 LegendNANA
21:00 -9.7 -10.1 97 0.0 32 13 4.8 102.30   -16 Fog
22:00 -8.5 -8.9 97 0.0 32 4 0.2 102.30   -11 Freezing Rain, Freezing Fog
23:00 -7.7 -8.0 98 0.0 34 5 0.2 102.26   -10 Freezing Fog

Notes on Data Quality.

Legend

  • E = Estimated
  • M = Missing
  • NA = Not Available*
  • [empty] = Indicates an unobserved value
Date modified: